Location: Ripley
(48.3812°N, 115.4473°W)
Time: 18:10:10
(UTC+00:00)

CAS-6 - Pass Details

Date: 27 June 2022
Orbit: 613 x 634 km, 97.9° (Epoch: 19 August)

Event Time Altitude Azimuth Distance (km) Brightness Sun altitude
Exits shadow 05:49:14 22° 163° (SSE) 1,395 ? -13.8°
Maximum altitude 05:52:04 86° 79° (E) 636 ? -14.0°
Drops below altitude 10° 05:56:28 10° 347° (NNW) 2,010 ? -14.3°
Sets 05:58:40 0° 347° (NNW) 2,918 ? -14.5°
